Home > Weather > Pittsburgh > Past weeks

Flag for USA Weather for the Past 2 Weeks in Pittsburgh, Pennsylvania, USA

Now
48 °F

Low clouds.


Feels Like: 47 °F
Forecast: 52 / 65 °F
Wind: 3 mph from Northwest

Location: Allegheny County Airport

Current Time: May 3, 2016 at 6:48:56 AM

Latest Report: May 3, 2016 at 5:53 AM


Visibility: 10 mi

Pressure: 29.88 "Hg

Humidity: 86%

Dew Point: 44 °F

Location of PittsburghLocation

Historic Weather in Pittsburgh — Graph

°F

Pittsburgh Temperature Yesterday

Maximum temperature yesterday: 67 °F (at 11:53 AM)
Minimum temperature yesterday: 53 °F (at 11:53 PM)
Average temperature yesterday: 60 °F

High & Low Weather Summary for the Past Weeks

 TemperatureHumidityPressure
High80 °F (Apr 18, 5:53 PM)97% (Apr 29, 5:01 AM)30.32 "Hg (Apr 29, 5:01 AM)
Low41 °F (Apr 24, 6:53 AM)12% (Apr 20, 4:53 PM)29.71 "Hg (Apr 26, 5:53 AM)
Average59 °F59%29.99 "Hg
* Reported Apr 18 4:53 AM — May 3 4:53 AM, Pittsburgh, Weather by CustomWeather, © 2016

Note: Actual official high and low records may vary slightly from our data, if they occured in-between our weather recording intervals... More about our weather records

Advertising

Pittsburgh Weather History for the Previous 24 Hours

Scroll right to see more
 ConditionsComfort  
Time TempWeatherWind HumidityBarometerVisibility
4:53 AM
Tue, May 3
49 °FMostly cloudy.5 mph86%29.87 "Hg10 mi
3:53 AM49 °FMostly cloudy.7 mph84%29.86 "Hg10 mi
3:01 AM50 °FLow clouds.6 mph83%29.86 "Hg10 mi
1:53 AM51 °FMostly cloudy.5 mph83%29.89 "Hg10 mi
12:53 AM52 °FOvercast.5 mph83%29.90 "Hg10 mi
11:53 PM
Mon, May 2
53 °FOvercast.6 mph83%29.90 "Hg10 mi
10:53 PM54 °FOvercast.8 mph80%29.91 "Hg10 mi
9:53 PM55 °FOvercast.6 mph83%29.91 "Hg10 mi
8:53 PM56 °FPartly sunny.No wind81%29.91 "Hg10 mi
7:53 PM57 °FLight rain. More clouds than sun.6 mph78%29.91 "Hg10 mi
6:53 PM60 °FOvercast.5 mph67%29.93 "Hg10 mi
6:00 PM61 °FPartly sunny.12 mph67%29.90 "Hg10 mi
4:53 PM64 °FScattered clouds.12 mph61%29.90 "Hg10 mi
3:53 PM66 °FScattered clouds.15 mph61%29.90 "Hg10 mi
3:00 PM67 °FScattered clouds.10 mph61%29.90 "Hg10 mi
1:53 PM67 °FPartly sunny.10 mph63%29.89 "Hg10 mi
1:00 PM64 °FMostly cloudy.7 mph70%29.91 "Hg10 mi
11:53 AM67 °FBroken clouds.9 mph66%29.91 "Hg10 mi
10:53 AM66 °FBroken clouds.13 mph68%29.91 "Hg10 mi
9:53 AM63 °FPartly sunny.15 mph75%29.90 "Hg10 mi
8:53 AM62 °FScattered clouds.12 mph83%29.90 "Hg10 mi
7:53 AM59 °FPartly sunny.7 mph90%29.90 "Hg10 mi
6:53 AM57 °FFog.9 mph90%29.88 "Hg5 mi
Weather by CustomWeather, © 2016

See weather overviewHow to use our weather pages